Home   Weather   Guayaquil   Past weeks
Flag for Ecuador

Past Weather in Guayaquil, Ecuador — Yesterday and Last 2 Weeks

Now
81 °F

Passing clouds.


Feels Like: 85 °F
Forecast: 91 / 76 °F
Wind: 6 mph from Southwest

Location: Guayaquil / Simon Bolivar

Current Time: Apr 2, 2020 at 1:36:15 am

Latest Report: Apr 2, 2020 at 1:00 am


Visibility: N/A

Pressure: 29.86 "Hg

Humidity: 79%

Dew Point: 73 °F

Location of GuayaquilLocation

Past Weather in Guayaquil — Graph

°F

Guayaquil Temperature Yesterday

Maximum temperature yesterday: 86 °F (at 11:00 am)
Minimum temperature yesterday: 75 °F (at 3:00 am)
Average temperature yesterday: 81 °F

High & Low Weather Summary for the Past Weeks

 TemperatureHumidityPressure
High93 °F (Mar 21, 3:00 pm)94% (Mar 18, 6:00 am)29.98 "Hg (Mar 18, 6:00 am)
Low73 °F (Mar 28, 3:00 am)49% (Mar 21, 2:00 pm)29.71 "Hg (Mar 26, 4:00 pm)
Average82 °F74%29.83 "Hg
* Reported Mar 18 12:00 am — Apr 2 12:00 am, Guayaquil. Weather by CustomWeather, © 2020

Note: Actual official high and low records may vary slightly from our data, if they occured in-between our weather recording intervals... More about our weather records

Guayaquil Weather History for the Previous 24 Hours

Scroll right to see more
 ConditionsComfort  
Time TempWeatherWind HumidityBarometerVisibility
12:00 am
Thu, Apr 2
82 °FPassing clouds.6 mph74%29.89 "HgN/A
11:00 pm
Wed, Apr 1
82 °FPassing clouds.6 mph74%29.89 "HgN/A
10:00 pm82 °FPartly cloudy.5 mph79%29.86 "HgN/A
9:00 pm82 °FPartly cloudy.6 mph74%29.83 "HgN/A
8:00 pm82 °FPartly cloudy.3 mph70%29.80 "HgN/A
7:00 pm82 °FPartly cloudy.3 mph74%29.80 "HgN/A
6:00 pm84 °FBroken clouds.6 mph70%29.77 "HgN/A
5:00 pm86 °FPartly sunny.6 mph66%29.77 "HgN/A
4:00 pm86 °FBroken clouds.6 mph66%29.77 "HgN/A
3:00 pm84 °FBroken clouds.8 mph74%29.77 "HgN/A
2:00 pm86 °FBroken clouds.7 mph70%29.80 "HgN/A
1:00 pm86 °FBroken clouds.8 mph66%29.83 "HgN/A
12:00 pm86 °FBroken clouds.7 mph70%29.83 "HgN/A
11:00 am86 °FBroken clouds.8 mph70%29.86 "HgN/A
10:00 am81 °FPartly sunny.7 mph74%29.86 "HgN/A
9:00 am79 °FPartly sunny.7 mph79%29.86 "HgN/A
8:00 am77 °FPartly sunny.6 mph89%29.86 "HgN/A
7:00 am75 °FPartly sunny.6 mph94%29.83 "HgN/A
6:00 am75 °FPassing clouds.3 mph94%29.83 "HgN/A
5:00 am75 °FMostly cloudy.2 mph94%29.83 "HgN/A
3:00 am75 °FLight rain. Mostly cloudy.7 mph94%29.83 "HgN/A
2:00 am77 °FLight rain. Mostly cloudy.6 mph89%29.86 "HgN/A
1:00 am77 °FMostly cloudy.6 mph89%29.86 "HgN/A
Weather by CustomWeather, © 2020

See weather overview

Advertising